Time,TemperatureF,DewpointF,PressureIn,WindDirection,WindDirectionDegrees,WindSpeedMPH,WindSpeedGustMPH,Humidity,HourlyPrecipIn,Conditions,Clouds,dailyrainin,SolarRadiationWatts/m^2,SoftwareType,DateUTC
2013-02-14 00:12:00,36.9,18.0,25.03,WNW,301,6.0,10.0,46,0.00,,,0.00,0,weatherlink.com 1.10,2013-02-14 07:12:00,
2013-02-14 00:27:00,36.4,18.0,25.04,NNW,330,1.0,6.0,47,0.00,,,0.00,0,weatherlink.com 1.10,2013-02-14 07:27:00,
2013-02-14 00:43:00,36.1,17.0,25.03,WNW,300,2.0,2.0,47,0.00,,,0.00,0,weatherlink.com 1.10,2013-02-14 07:43:00,
2013-02-14 00:57:00,35.4,18.0,25.03,WNW,300,0.0,2.0,49,0.00,,,0.00,0,weatherlink.com 1.10,2013-02-14 07:57:00,
2013-02-14 01:12:00,36.0,18.0,25.03,NNW,335,2.0,4.0,48,0.00,,,0.00,0,weatherlink.com 1.10,2013-02-14 08:12:00,
2013-02-14 01:27:00,35.7,18.0,25.03,NNW,344,1.0,4.0,48,0.00,,,0.00,0,weatherlink.com 1.10,2013-02-14 08:27:00,
2013-02-14 01:42:00,35.1,18.0,25.03,North,5,3.0,4.0,49,0.00,,,0.00,0,weatherlink.com 1.10,2013-02-14 08:42:00,
2013-02-14 01:57:00,34.0,17.0,25.02,ENE,58,1.0,4.0,50,0.00,,,0.00,0,weatherlink.com 1.10,2013-02-14 08:57:00,
2013-02-14 02:13:00,34.2,18.0,25.02,SSW,212,0.0,7.0,51,0.00,,,0.00,0,weatherlink.com 1.10,2013-02-14 09:13:00,
2013-02-14 02:28:00,33.9,18.0,25.02,ESE,106,1.0,5.0,52,0.00,,,0.00,0,weatherlink.com 1.10,2013-02-14 09:28:00,
2013-02-14 02:44:00,34.6,18.0,25.02,ENE,69,4.0,7.0,50,0.00,,,0.00,0,weatherlink.com 1.10,2013-02-14 09:44:00,
2013-02-14 02:58:00,34.6,18.0,25.02,ENE,59,4.0,5.0,51,0.00,,,0.00,0,weatherlink.com 1.10,2013-02-14 09:58:00,
2013-02-14 03:13:00,34.9,18.0,25.02,NW,316,2.0,6.0,51,0.00,,,0.00,0,weatherlink.com 1.10,2013-02-14 10:13:00,
2013-02-14 03:28:00,34.6,18.0,25.02,NNE,30,3.0,5.0,51,0.00,,,0.00,0,weatherlink.com 1.10,2013-02-14 10:28:00,
2013-02-14 03:43:00,34.5,18.0,25.01,NNE,30,1.0,5.0,51,0.00,,,0.00,0,weatherlink.com 1.10,2013-02-14 10:43:00,
2013-02-14 03:58:00,33.7,18.0,25.01,NNE,30,2.0,5.0,53,0.00,,,0.00,0,weatherlink.com 1.10,2013-02-14 10:58:00,
2013-02-14 04:13:00,33.4,18.0,25.01,North,5,2.0,5.0,54,0.00,,,0.00,0,weatherlink.com 1.10,2013-02-14 11:13:00,
2013-02-14 04:28:00,33.5,18.0,25.02,NNE,13,1.0,6.0,54,0.00,,,0.00,0,weatherlink.com 1.10,2013-02-14 11:28:00,
2013-02-14 04:43:00,33.4,18.0,25.02,NNE,13,0.0,3.0,54,0.00,,,0.00,0,weatherlink.com 1.10,2013-02-14 11:43:00,
2013-02-14 04:58:00,32.9,18.0,25.02,NNE,24,2.0,5.0,55,0.00,,,0.00,0,weatherlink.com 1.10,2013-02-14 11:58:00,
2013-02-14 05:13:00,32.6,18.0,25.02,NE,52,1.0,4.0,56,0.00,,,0.00,0,weatherlink.com 1.10,2013-02-14 12:13:00,
2013-02-14 05:28:00,32.6,18.0,25.02,NE,52,0.0,3.0,56,0.00,,,0.00,0,weatherlink.com 1.10,2013-02-14 12:28:00,
2013-02-14 05:43:00,31.9,18.0,25.03,NE,52,0.0,3.0,57,0.00,,,0.00,0,weatherlink.com 1.10,2013-02-14 12:43:00,
2013-02-14 05:58:00,29.9,17.0,25.03,NE,52,0.0,2.0,60,0.00,,,0.00,0,weatherlink.com 1.10,2013-02-14 12:58:00,
2013-02-14 06:13:00,29.8,18.0,25.03,NE,52,2.0,3.0,61,0.00,,,0.00,0,weatherlink.com 1.10,2013-02-14 13:13:00,
2013-02-14 06:28:00,28.8,17.0,25.04,NE,52,0.0,3.0,62,0.00,,,0.00,0,weatherlink.com 1.10,2013-02-14 13:28:00,
2013-02-14 06:43:00,28.1,17.0,25.04,NE,52,0.0,0.0,63,0.00,,,0.00,0,weatherlink.com 1.10,2013-02-14 13:43:00,
2013-02-14 06:58:00,27.7,17.0,25.04,NE,52,0.0,0.0,64,0.00,,,0.00,7,weatherlink.com 1.10,2013-02-14 13:58:00,
2013-02-14 07:13:00,27.8,17.0,25.04,NE,52,0.0,1.0,64,0.00,,,0.00,14,weatherlink.com 1.10,2013-02-14 14:13:00,
2013-02-14 07:28:00,28.8,17.0,25.05,NE,55,0.0,2.0,62,0.00,,,0.00,70,weatherlink.com 1.10,2013-02-14 14:28:00,
2013-02-14 07:43:00,29.6,18.0,25.05,NE,55,0.0,3.0,61,0.00,,,0.00,125,weatherlink.com 1.10,2013-02-14 14:43:00,
2013-02-14 07:58:00,30.9,18.0,25.05,NE,55,0.0,2.0,59,0.00,,,0.00,179,weatherlink.com 1.10,2013-02-14 14:58:00,
2013-02-14 08:14:00,32.6,19.0,25.06,NE,55,0.0,2.0,57,0.00,,,0.00,227,weatherlink.com 1.10,2013-02-14 15:14:00,
2013-02-14 08:29:00,34.5,19.0,25.06,NE,55,0.0,0.0,54,0.00,,,0.00,274,weatherlink.com 1.10,2013-02-14 15:29:00,
2013-02-14 08:44:00,36.2,19.0,25.06,NE,36,4.0,6.0,50,0.00,,,0.00,318,weatherlink.com 1.10,2013-02-14 15:44:00,
2013-02-14 08:59:00,36.4,19.0,25.06,North,5,4.0,7.0,50,0.00,,,0.00,366,weatherlink.com 1.10,2013-02-14 15:59:00,
2013-02-14 09:14:00,37.5,19.0,25.06,NNE,19,2.0,7.0,48,0.00,,,0.00,411,weatherlink.com 1.10,2013-02-14 16:14:00,
2013-02-14 09:29:00,38.7,19.0,25.05,NE,42,2.0,6.0,46,0.00,,,0.00,454,weatherlink.com 1.10,2013-02-14 16:29:00,
2013-02-14 09:44:00,39.3,19.0,25.05,NNE,15,3.0,7.0,45,0.00,,,0.00,492,weatherlink.com 1.10,2013-02-14 16:44:00,
2013-02-14 09:59:00,41.4,20.0,25.05,ENE,59,4.0,5.0,43,0.00,,,0.00,533,weatherlink.com 1.10,2013-02-14 16:59:00,
2013-02-14 10:14:00,42.4,20.0,25.05,North,360,5.0,11.0,41,0.00,,,0.00,564,weatherlink.com 1.10,2013-02-14 17:14:00,
2013-02-14 10:29:00,43.0,21.0,25.05,North,9,14.0,16.0,41,0.00,,,0.00,598,weatherlink.com 1.10,2013-02-14 17:29:00,
2013-02-14 10:44:00,43.8,21.0,25.05,NW,324,4.0,16.0,40,0.00,,,0.00,624,weatherlink.com 1.10,2013-02-14 17:44:00,
2013-02-14 10:59:00,44.2,20.0,25.04,NNW,334,15.0,20.0,38,0.00,,,0.00,656,weatherlink.com 1.10,2013-02-14 17:59:00,
2013-02-14 11:14:00,44.6,19.0,25.04,WNW,302,13.0,23.0,36,0.00,,,0.00,673,weatherlink.com 1.10,2013-02-14 18:14:00,
2013-02-14 11:29:00,45.2,19.0,25.03,NW,319,15.0,19.0,35,0.00,,,0.00,689,weatherlink.com 1.10,2013-02-14 18:29:00,
2013-02-14 11:44:00,45.4,19.0,25.03,WNW,297,6.0,22.0,35,0.00,,,0.00,703,weatherlink.com 1.10,2013-02-14 18:44:00,
2013-02-14 12:00:00,46.1,20.0,25.02,NW,309,7.0,18.0,35,0.00,,,0.00,708,weatherlink.com 1.10,2013-02-14 19:00:00,
2013-02-14 12:15:00,46.7,20.0,25.01,WNW,303,7.0,18.0,34,0.00,,,0.00,714,weatherlink.com 1.10,2013-02-14 19:15:00,
2013-02-14 12:30:00,47.5,20.0,25.00,North,360,7.0,14.0,33,0.00,,,0.00,712,weatherlink.com 1.10,2013-02-14 19:30:00,
2013-02-14 12:45:00,48.4,20.0,24.99,NNW,340,8.0,16.0,32,0.00,,,0.00,712,weatherlink.com 1.10,2013-02-14 19:45:00,
2013-02-14 13:00:00,49.2,20.0,24.98,North,5,2.0,9.0,31,0.00,,,0.00,701,weatherlink.com 1.10,2013-02-14 20:00:00,
2013-02-14 13:15:00,50.5,19.0,24.97,NW,323,16.0,16.0,29,0.00,,,0.00,689,weatherlink.com 1.10,2013-02-14 20:15:00,
2013-02-14 13:30:00,51.2,18.0,24.97,WNW,301,10.0,16.0,27,0.00,,,0.00,671,weatherlink.com 1.10,2013-02-14 20:30:00,
2013-02-14 13:45:00,51.3,16.0,24.97,NNW,343,10.0,17.0,25,0.00,,,0.00,650,weatherlink.com 1.10,2013-02-14 20:45:00,
2013-02-14 14:00:00,52.2,16.0,24.97,NNW,345,8.0,20.0,24,0.00,,,0.00,628,weatherlink.com 1.10,2013-02-14 21:00:00,
2013-02-14 14:15:00,52.4,16.0,24.96,NNW,335,16.0,19.0,24,0.00,,,0.00,601,weatherlink.com 1.10,2013-02-14 21:15:00,
2013-02-14 14:30:00,51.6,17.0,24.97,NNW,330,8.0,22.0,25,0.00,,,0.00,571,weatherlink.com 1.10,2013-02-14 21:30:00,
2013-02-14 14:45:00,51.9,18.0,24.97,North,5,13.0,21.0,26,0.00,,,0.00,538,weatherlink.com 1.10,2013-02-14 21:45:00,
2013-02-14 15:00:00,51.9,18.0,24.98,NW,319,17.0,27.0,26,0.00,,,0.00,497,weatherlink.com 1.10,2013-02-14 22:00:00,
2013-02-14 15:15:00,51.7,19.0,24.98,NW,325,12.0,19.0,27,0.00,,,0.00,455,weatherlink.com 1.10,2013-02-14 22:15:00,
2013-02-14 15:30:00,51.8,18.0,24.98,NNW,342,8.0,18.0,26,0.00,,,0.00,415,weatherlink.com 1.10,2013-02-14 22:30:00,
2013-02-14 15:45:00,52.2,19.0,24.98,NW,323,3.0,18.0,27,0.00,,,0.00,369,weatherlink.com 1.10,2013-02-14 22:45:00,
2013-02-14 16:00:00,51.9,18.0,24.98,North,360,7.0,20.0,26,0.00,,,0.00,327,weatherlink.com 1.10,2013-02-14 23:00:00,
2013-02-14 16:15:00,51.3,18.0,24.98,NNW,341,11.0,22.0,27,0.00,,,0.00,271,weatherlink.com 1.10,2013-02-14 23:15:00,
2013-02-14 16:30:00,50.8,18.0,24.99,NNW,340,17.0,25.0,27,0.00,,,0.00,207,weatherlink.com 1.10,2013-02-14 23:30:00,
2013-02-14 16:45:00,50.6,18.0,24.98,NW,309,15.0,21.0,28,0.00,,,0.00,148,weatherlink.com 1.10,2013-02-14 23:45:00,
2013-02-14 17:00:00,50.3,18.0,24.98,NW,310,14.0,17.0,28,0.00,,,0.00,90,weatherlink.com 1.10,2013-02-15 00:00:00,
2013-02-14 17:16:00,49.6,18.0,24.98,NW,310,4.0,20.0,29,0.00,,,0.00,40,weatherlink.com 1.10,2013-02-15 00:16:00,
2013-02-14 17:30:00,49.1,19.0,24.99,NNW,340,12.0,15.0,30,0.00,,,0.00,16,weatherlink.com 1.10,2013-02-15 00:30:00,
2013-02-14 17:45:00,48.0,19.0,24.99,North,355,12.0,17.0,31,0.00,,,0.00,7,weatherlink.com 1.10,2013-02-15 00:45:00,
2013-02-14 18:00:00,47.3,19.0,25.00,North,5,7.0,21.0,32,0.00,,,0.00,0,weatherlink.com 1.10,2013-02-15 01:00:00,
2013-02-14 18:15:00,46.8,19.0,25.00,NNE,17,9.0,13.0,33,0.00,,,0.00,0,weatherlink.com 1.10,2013-02-15 01:15:00,
2013-02-14 18:31:00,46.3,19.0,25.01,NNW,340,2.0,10.0,34,0.00,,,0.00,0,weatherlink.com 1.10,2013-02-15 01:31:00,
2013-02-14 18:46:00,45.9,19.0,25.01,NNW,339,0.0,3.0,34,0.00,,,0.00,0,weatherlink.com 1.10,2013-02-15 01:46:00,
2013-02-14 19:01:00,45.4,19.0,25.02,North,5,0.0,2.0,35,0.00,,,0.00,0,weatherlink.com 1.10,2013-02-15 02:01:00,
2013-02-14 19:16:00,45.5,20.0,25.02,NW,306,3.0,17.0,36,0.00,,,0.00,0,weatherlink.com 1.10,2013-02-15 02:16:00,
2013-02-14 19:31:00,45.5,20.0,25.03,NNE,28,4.0,13.0,37,0.00,,,0.00,0,weatherlink.com 1.10,2013-02-15 02:31:00,
2013-02-14 19:46:00,45.1,20.0,25.04,NNE,25,2.0,10.0,37,0.00,,,0.00,0,weatherlink.com 1.10,2013-02-15 02:46:00,
2013-02-14 20:01:00,44.8,20.0,25.04,NNE,15,7.0,10.0,38,0.00,,,0.00,0,weatherlink.com 1.10,2013-02-15 03:01:00,
2013-02-14 20:16:00,44.6,21.0,25.04,North,355,6.0,8.0,39,0.00,,,0.00,0,weatherlink.com 1.10,2013-02-15 03:16:00,
2013-02-14 20:31:00,44.0,21.0,25.05,NNE,23,6.0,7.0,40,0.00,,,0.00,0,weatherlink.com 1.10,2013-02-15 03:31:00,
2013-02-14 20:46:00,43.7,21.0,25.05,NW,311,4.0,12.0,40,0.00,,,0.00,0,weatherlink.com 1.10,2013-02-15 03:46:00,
2013-02-14 21:01:00,43.3,20.0,25.06,North,350,3.0,11.0,39,0.00,,,0.00,0,weatherlink.com 1.10,2013-02-15 04:01:00,
2013-02-14 21:16:00,42.7,20.0,25.07,NNW,348,6.0,7.0,40,0.00,,,0.00,0,weatherlink.com 1.10,2013-02-15 04:16:00,
2013-02-14 21:31:00,42.6,20.0,25.08,North,5,3.0,9.0,40,0.00,,,0.00,0,weatherlink.com 1.10,2013-02-15 04:31:00,
2013-02-14 21:46:00,41.9,20.0,25.09,NNW,328,2.0,6.0,41,0.00,,,0.00,0,weatherlink.com 1.10,2013-02-15 04:46:00,
2013-02-14 22:01:00,41.6,19.0,25.09,NNE,21,8.0,10.0,41,0.00,,,0.00,0,weatherlink.com 1.10,2013-02-15 05:01:00,
2013-02-14 22:16:00,41.3,20.0,25.10,ENE,58,5.0,11.0,42,0.00,,,0.00,0,weatherlink.com 1.10,2013-02-15 05:16:00,
2013-02-14 22:31:00,41.0,20.0,25.10,NE,35,5.0,10.0,43,0.00,,,0.00,0,weatherlink.com 1.10,2013-02-15 05:31:00,
2013-02-14 22:46:00,40.1,20.0,25.10,NE,46,3.0,9.0,44,0.00,,,0.00,0,weatherlink.com 1.10,2013-02-15 05:46:00,
2013-02-14 23:01:00,39.5,20.0,25.11,NE,46,3.0,4.0,45,0.00,,,0.00,0,weatherlink.com 1.10,2013-02-15 06:01:00,
2013-02-14 23:16:00,39.3,19.0,25.11,NE,46,2.0,3.0,45,0.00,,,0.00,0,weatherlink.com 1.10,2013-02-15 06:16:00,
2013-02-14 23:31:00,39.2,19.0,25.11,NNE,28,0.0,5.0,45,0.00,,,0.00,0,weatherlink.com 1.10,2013-02-15 06:31:00,
2013-02-14 23:46:00,37.5,19.0,25.11,WSW,257,6.0,7.0,47,0.00,,,0.00,0,weatherlink.com 1.10,2013-02-15 06:46:00,